GFSCGP_con_sbcape_132.txt.gz
CAPE
1 8 0 0 0 0 0 0 0 0 0 0 0 0 0 0 0 0 0 0 0 0 0 0 0 85 1253 2943 3676 4080 3771 3457 2479 1874 1996 2140 2336 1896 1961 2015 2048 2147 2119 2220
3 0 0 0 5 0 0 0 0 0 0 0 0 0 0 0 0 0 0 0 0 0 0 0 0 0 1044 2132 3236 3783 3789 2545 1968 1942 2171 1961 2090 1758 1821 1734 1953 2095 2081 2061
37 0 0 0 8 17 0 0 0 0 0 0 0 0 0 0 0 0 0 0 0 0 0 0 0 0 340 1259 2408 3186 3593 2288 2037 2472 1933 1765 1895 1918 1857 1599 1560 1748 1677 1754
49 6 38 7 17 19 9 0 0 0 0 0 0 0 0 0 0 0 0 0 0 0 0 0 0 0 36 781 1600 2520 3157 2016 1677 1821 1649 2339 2020 1774 1676 1743 1449 1438 1199 1398
1 0 0 47 10 27 9 22 4 9 0 0 0 0 0 0 0 0 0 0 0 0 0 0 0 0 0 162 1045 2419 2730 1488 1151 1318 1835 2249 2216 1906 1880 1613 1875 1687 1365 1455
63 36 39 0 31 68 54 60 53 43 11 27 0 0 0 0 0 0 0 0 0 0 0 0 0 0 0 278 1363 2503 1199 1122 957 1455 1864 1882 2086 1821 1532 1523 1466 1598 1350 1422
95 58 51 50 54 111 59 54 51 71 56 0 0 0 0 0 0 0 0 0 0 0 0 0 0 0 46 1370 1586 1346 1013 1040 1370 1914 1436 1499 1733 1865 2019 1919 1744 1566 1458 1318
109 136 85 15 62 58 83 103 70 26 5 0 0 0 0 0 0 0 0 0 0 0 0 0 0 20 1287 972 804 811 1045 1143 1106 780 839 1115 1598 1398 1090 985 1533 1253 1116 736
63 113 51 7 125 135 138 201 53 67 17 35 5 4 15 0 0 0 7 17 0 0 0 8 314 1095 716 842 649 621 704 657 475 435 360 436 412 397 250 226 286 161 117 83
102 177 104 38 149 160 119 26 118 79 88 49 19 2 0 0 2 19 343 115 42 77 107 107 153 277 514 593 718 774 836 587 348 146 68 44 27 22 15 15 7 6 3 2
11 97 172 30 118 130 168 134 78 88 84 74 57 67 67 11 122 177 6 14 11 10 10 10 7 11 190 350 379 294 75 30 8 0 0 0 0 0 0 0 0 0 0 0
15 42 89 87 247 230 96 139 128 85 116 80 74 286 276 299 155 10 13 12 11 9 9 5 4 16 48 23 19 7 7 0 0 0 0 0 0 0 0 0 0 0 0 0
11 40 25 91 78 18 208 168 78 157 126 127 95 280 182 13 15 11 12 11 8 5 2 1 4 8 9 3 1 0 0 0 0 0 0 0 0 0 0 0 0 0 0 0
17 9 18 81 0 0 60 230 91 150 167 122 137 241 300 21 16 13 11 8 4 3 1 0 1 1 1 0 0 0 0 0 0 0 0 0 0 0 0 0 0 0 0 0
11 9 74 246 35 31 176 259 107 72 45 61 413 347 229 32 13 13 9 7 4 3 3 6 9 2 0 0 0 0 0 0 0 0 0 0 0 0 0 0 0 0 0 0
12 6 2 294 94 34 93 160 48 103 0 132 393 452 137 19 12 9 9 8 5 4 5 3 1 0 0 0 0 0 0 0 0 0 0 0 0 0 0 0 0 0 2 4
16 17 101 332 42 34 27 103 31 31 39 334 508 70 9 16 17 19 15 9 9 8 6 4 1 0 0 0 0 0 0 0 0 0 0 0 0 0 0 0 0 5 9 9
22 5 12 6 37 488 34 75 84 5 84 470 69 25 12 8 8 17 23 12 8 6 2 0 0 0 0 0 0 0 0 0 0 0 0 0 0 0 0 1 5 12 12 14
11 14 19 95 277 52 93 69 13 30 38 412 71 10 7 1 0 3 1 0 0 0 0 0 0 0 0 0 0 0 0 0 0 0 0 0 0 3 5 9 11 10 12 12
7 7 12 545 310 284 230 427 202 85 89 266 52 2 3 1 1 10 0 0 0 0 0 0 0 0 0 0 0 0 0 0 0 0 1 2 2 4 7 10 11 12 11 9
11 5 103 344 405 315 452 414 433 97 359 230 5 6 17 37 0 2 0 0 0 0 0 0 0 0 0 0 0 0 0 0 1 3 3 4 6 6 9 5 8 9 8 7
10 244 253 339 326 253 105 359 153 516 134 5 8 0 1 0 0 0 0 0 0 0 0 0 0 0 0 0 0 0 3 4 4 5 5 9 11 6 7 10 10 10 5 4
41 47 37 23 14 8 262 556 487 93 12 2 0 0 0 0 0 0 0 0 0 0 0 0 0 0 0 0 0 0 6 6 8 6 5 6 10 8 7 9 9 5 4 4
18 16 10 8 8 12 91 324 148 8 2 0 0 0 0 0 0 0 0 0 0 0 0 0 0 0 0 0 0 0 5 5 5 11 6 5 8 7 6 4 5 10 7 8
8 2 8 16 8 3 11 7 5 1 0 0 0 0 0 0 0 0 0 0 0 0 0 0 0 0 0 0 0 0 4 9 5 6 6 5 1 5 4 9 6 9 9 7
13 14 16 15 6 4 5 11 5 4 4 7 6 0 0 0 0 0 0 0 0 0 0 0 0 0 1 1 1 0 0 8 6 8 4 3 2 2 7 7 7 0 2 1

GFSCGP_con_sbcape_135.txt.gz
CAPE
0 2 0 0 0 0 0 0 0 0 0 0 0 0 0 0 0 0 0 0 0 0 0 0 556 2455 3526 4068 4255 3932 4034 4934 3360 3063 3234 2548 2504 2545 2401 2390 2283 2574 2348 2363
39 3 0 0 1 8 7 0 0 0 0 0 0 0 0 0 0 0 0 0 0 0 0 0 0 2048 2083 3016 3528 4396 4132 3968 3372 3085 3029 2810 2945 2564 2280 2345 2691 2948 2084 2107
40 5 0 0 5 21 8 2 0 2 0 0 0 0 0 0 0 0 0 0 0 0 0 0 0 8 583 2177 3190 3962 4504 3864 2720 2870 2986 3251 3267 2542 2719 2926 2518 2198 1971 2054
106 57 18 0 3 1 17 0 7 22 26 8 0 0 0 0 0 0 0 0 0 0 0 0 0 0 416 1125 2247 3045 3282 3201 2684 2663 2653 3125 2508 2818 2436 2382 2101 1987 1899 1831
48 108 58 3 20 6 0 17 24 16 30 22 13 0 0 0 0 0 0 0 0 0 0 0 0 0 1 471 1364 2538 2666 2953 2618 2260 2544 2934 3418 2298 1977 1736 2560 2360 1814 1701
27 75 140 53 28 34 23 41 55 45 44 57 8 0 0 0 0 0 0 0 0 0 0 0 0 0 0 96 950 2435 2946 2073 1828 1912 2727 3210 2985 1992 1801 1748 2150 2583 1602 1854
229 218 79 130 34 61 88 115 108 74 116 47 1 0 0 0 0 0 0 0 0 0 0 0 0 0 0 0 1204 2873 1991 1533 1674 2164 2236 2533 2504 2317 2219 2022 1666 1738 1633 2096
71 141 106 99 109 47 102 166 85 57 21 1 0 1 0 0 2 0 0 0 0 0 0 0 0 0 0 1793 2212 1872 1644 1534 2125 2140 2057 2338 2308 2194 1879 1863 1668 1500 1493 1168
177 121 31 110 143 103 126 206 99 67 48 10 11 9 10 1 0 0 0 0 0 0 0 0 0 0 1760 1824 1447 1329 1505 1599 1343 1440 1573 1644 1653 1337 1159 1112 932 615 545 335
230 250 36 152 138 124 84 115 159 76 75 59 52 29 29 29 0 0 0 273 381 61 2 157 794 1607 1261 936 975 952 1016 1054 1094 1029 1065 999 835 681 567 454 302 242 176 129
14 66 8 146 112 145 126 109 118 60 70 100 57 46 53 26 16 80 698 154 82 232 579 785 901 699 692 812 978 969 932 857 571 513 319 150 65 48 39 18 18 13 3 0
6 52 53 161 269 282 183 176 128 146 126 33 94 545 650 83 233 188 14 9 10 55 325 430 460 577 613 497 508 523 229 109 42 10 0 0 0 0 0 0 0 0 0 0
21 44 222 91 118 357 253 295 162 82 309 208 163 474 519 292 11 9 7 7 8 5 32 129 154 158 58 44 18 8 7 2 0 0 0 0 0 0 0 0 0 0 0 0
23 13 159 302 176 349 52 194 160 180 160 142 189 555 309 9 11 11 12 6 2 2 1 0 4 8 10 6 7 2 0 0 0 0 0 0 0 0 0 0 0 0 0 0
7 31 19 75 221 137 261 278 134 69 114 106 390 342 254 45 9 12 6 3 1 0 0 0 2 6 7 5 2 0 0 0 0 0 0 0 0 0 0 0 0 0 0 0
16 6 13 84 222 112 235 278 203 45 0 61 14 299 171 13 12 15 11 8 9 6 4 0 3 7 3 0 0 0 0 0 0 0 0 0 0 0 0 0 0 0 0 1
26 25 10 151 30 28 276 251 203 57 73 29 73 47 8 12 17 18 15 11 8 8 7 7 7 4 1 0 0 0 0 0 0 0 0 0 0 0 0 0 1 6 9 14
16 12 16 199 75 3 121 416 330 240 439 303 25 23 8 4 2 8 8 13 6 3 6 5 3 0 0 0 0 0 0 0 0 0 0 0 0 0 0 3 7 10 10 9
7 5 18 25 47 117 177 321 148 321 29 26 7 7 6 3 0 2 3 9 6 6 4 0 0 0 0 0 0 0 0 0 0 0 0 0 0 2 4 7 13 13 12 10
12 11 12 44 209 243 213 256 147 255 1 11 8 5 3 0 1 2 0 3 2 0 0 0 0 0 0 0 0 0 0 0 0 0 1 2 3 7 9 12 10 11 13 10
69 423 7 459 436 38 126 214 37 28 37 30 9 5 2 5 7 5 0 0 0 0 0 0 0 0 0 0 0 0 0 0 2 4 5 7 5 4 8 9 7 7 3 7
13 52 324 413 309 240 173 456 115 633 158 65 42 3 6 6 4 0 0 0 0 0 0 0 0 0 0 0 0 0 1 3 7 8 9 8 7 5 6 6 5 5 4 4
58 22 24 16 8 3 407 87 504 308 88 4 0 4 1 1 0 0 0 0 0 0 0 0 0 0 0 0 0 0 6 5 12 9 10 7 7 7 7 7 8 4 4 3
1 2 8 3 0 235 430 247 62 12 11 0 0 0 0 0 0 0 0 0 0 0 0 0 0 0 0 0 0 1 7 8 8 5 4 4 4 7 6 4 6 3 3 4
15 5 7 8 3 2 22 12 7 7 2 2 1 1 0 0 0 0 0 0 0 0 0 0 0 0 0 0 0 0 5 7 9 3 4 2 1 10 7 2 3 7 4 5
11 12 11 9 9 13 15 7 0 0 0 0 0 1 0 0 0 0 0 0 0 0 0 0 0 0 0 0 0 0 1 9 6 9 5 0 0 8 5 5 4 0 1 0

GFSCGP_con_sbcape_138.txt.gz
CAPE
0 0 38 7 0 0 0 0 0 0 0 0 0 0 0 0 0 0 0 0 0 0 0 0 0 0 2116 4115 3970 3967 3314 3466 3655 3471 3851 3351 2972 3570 3190 3566 3359 3450 3280 3028
107 1 0 0 6 8 4 0 0 0 0 0 0 0 0 0 0 0 0 0 0 0 0 0 0 0 2881 4498 3342 3709 3110 3454 3195 2986 3669 3134 2929 2848 2997 2283 2701 3247 2844 2580
78 69 0 0 0 6 14 10 0 0 5 6 1 13 2 0 0 0 0 0 0 0 0 0 0 465 3739 2287 692 2209 2245 3106 2840 2775 3164 3346 3313 3484 2526 2961 3294 3087 2630 2305
120 9 34 4 1 0 4 0 0 1 0 26 20 6 25 0 0 0 0 0 0 0 0 0 0 871 2812 2975 1143 312 1369 2484 2449 2624 3264 3603 3047 2574 2752 2756 3054 2864 2191 2307
31 109 71 32 24 0 0 1 3 0 2 19 23 2 0 0 0 0 0 0 0 0 0 0 0 644 1040 2478 3207 2330 2519 2254 2942 2724 3152 2884 3043 2834 2934 2816 2949 3017 2780 1685
2 6 61 84 58 37 0 0 2 30 27 41 10 8 0 0 0 0 0 0 0 0 0 0 0 129 675 1469 2667 3260 3476 3173 2852 2743 2321 3318 3077 2835 2713 2287 2465 2297 2092 2072
0 0 3 13 87 17 45 17 25 11 78 8 0 17 0 0 0 0 0 0 0 0 0 0 0 0 125 803 2658 3208 2476 2312 1969 2280 2958 3175 3408 2752 2823 2524 1846 2164 1683 1889
17 91 58 61 17 51 35 74 47 32 65 2 0 0 0 0 1 1 0 0 0 0 0 0 0 0 0 371 2818 2402 2165 1921 1652 2159 2774 2949 3248 2374 2207 2707 2176 1764 1559 1278
163 119 89 61 119 14 18 38 46 66 55 9 0 0 0 9 23 37 0 0 0 0 0 0 0 1 1390 2739 2238 2373 2006 2072 2192 1741 1874 2046 2020 2183 1660 1645 1499 857 849 606
42 53 45 45 1 120 86 84 160 133 63 57 29 1 1 1 6 0 484 138 0 0 0 0 923 2319 2220 1930 1860 1871 1610 1368 960 1017 735 650 799 845 738 508 402 334 272 253
16 20 23 0 13 204 170 50 150 122 31 53 57 22 0 26 45 471 575 624 1187 1344 1575 1600 1518 1501 1362 1340 1359 1165 1095 825 738 353 199 137 76 40 42 15 3 1 3 0
14 33 41 0 2 156 169 11 109 126 59 67 95 356 987 253 788 601 176 333 809 1133 1107 1148 1127 1087 1186 1041 965 1011 264 9 0 0 0 0 0 0 0 0 0 0 0 0
7 21 50 98 32 97 162 90 28 156 154 102 88 662 339 433 273 24 84 315 518 712 789 662 779 841 631 350 57 0 0 0 0 0 0 0 0 0 0 0 0 0 0 0
20 25 19 88 26 187 146 16 43 42 33 76 15 463 102 23 1 2 12 87 216 408 384 238 129 13 0 0 0 0 0 0 0 0 0 0 0 0 0 0 0 0 0 0
8 25 7 2 3 6 82 61 63 36 2 95 137 356 36 7 3 3 1 9 10 19 1 0 0 0 0 0 0 0 0 0 0 0 0 0 0 0 0 0 0 0 0 1
6 11 11 7 3 108 46 31 48 126 1 2 270 206 11 11 6 1 1 0 0 0 0 0 0 0 0 0 0 0 0 0 0 0 0 0 0 0 0 0 2 2 1 0
2 22 14 205 249 243 103 43 50 70 17 7 15 14 6 8 6 4 2 1 0 0 0 0 0 0 0 1 0 0 0 0 0 0 0 0 0 0 0 0 1 7 11 16
7 6 9 155 134 183 52 98 74 217 144 79 52 10 10 10 6 7 3 0 0 0 0 0 0 0 0 0 0 0 0 0 0 0 0 0 0 0 2 3 7 11 11 10
4 6 11 114 249 75 160 8 178 110 162 19 5 4 2 1 0 6 0 0 0 0 0 0 0 0 0 0 0 0 0 0 0 0 0 0 0 1 3 8 12 9 5 3
3 3 9 250 170 116 424 186 54 1 5 1 1 2 0 0 1 2 0 0 0 0 0 2 0 0 0 0 0 0 0 0 0 0 0 2 0 3 7 6 7 5 3 7
7 2 4 2 3 174 349 125 132 110 4 8 1 2 2 0 2 0 0 0 0 4 1 0 0 0 0 0 0 0 0 2 3 2 4 3 8 7 7 1 7 6 4 8
12 12 19 10 18 124 23 291 122 4 22 13 1 0 1 0 0 0 0 0 1 0 0 0 0 0 0 0 0 3 7 6 4 5 4 8 7 4 4 7 5 0 3 5
5 14 13 10 10 3 400 89 1 6 2 2 2 1 0 0 0 0 0 0 0 0 0 0 0 0 0 0 2 2 6 5 1 2 9 6 6 2 3 4 1 1 3 3
3 1 11 1 1 75 258 109 8 0 4 5 4 4 0 0 0 0 0 0 0 0 0 0 0 0 0 1 2 7 7 2 0 7 4 5 3 0 2 2 0 1 1 1
10 4 5 6 0 1 4 3 0 2 4 7 4 5 4 0 0 0 0 0 0 0 0 0 0 0 0 0 1 4 4 3 1 4 0 0 4 0 0 0 1 1 1 1
11 12 15 2 2 4 0 1 1 1 0 0 1 3 0 0 0 0 0 0 0 0 0 0 0 0 0 0 0 1 2 3 3 3 0 0 3 1 2 1 0 0 0 0

GFSCGP_con_sbcape_141.txt.gz
CAPE
0 0 16 0 0 0 0 0 0 0 0 0 0 0 0 0 0 0 0 0 0 0 0 0 0 0 1193 82 0 0 0 0 105 576 2089 2043 2230 2202 2352 2591 2488 2207 1866 1693
31 9 0 0 0 0 2 0 0 0 0 0 0 0 0 0 0 0 0 0 0 0 0 0 0 0 3352 2303 1149 196 702 950 1371 1873 2326 2161 1982 1991 1842 2139 2137 2104 2077 1930
0 0 0 0 0 0 11 6 0 0 0 0 0 0 0 0 0 0 0 0 0 0 0 0 0 0 3578 3161 2608 2174 2547 2153 2039 2222 2192 1722 1839 2000 1695 1418 2115 2093 1774 1718
7 1 20 12 0 0 0 0 0 0 0 0 0 0 0 0 0 0 0 0 0 0 0 0 0 0 2688 1365 877 674 2298 2116 1776 2332 2063 2020 2074 1949 1726 1943 1981 1770 1560 1387
4 92 30 78 4 0 0 0 0 0 0 0 0 0 0 0 0 0 0 0 0 0 0 0 0 860 1656 1673 903 474 1194 1952 1906 2059 2226 2164 2168 1692 1907 1938 1914 1597 1170 935
4 0 8 5 8 31 24 0 0 0 0 0 0 0 0 0 0 0 0 0 0 0 0 0 0 1568 1853 1281 462 68 708 2010 1777 1926 2169 2053 2163 1716 1586 1724 1543 1416 898 828
1 0 0 0 0 21 45 7 0 0 0 0 0 0 0 0 0 0 0 0 0 0 0 0 130 684 2264 1491 1064 1551 2131 2158 1815 1866 1982 2086 1629 1307 1393 1622 1462 1129 935 895
0 17 7 6 10 78 36 2 0 23 1 0 0 0 0 0 0 0 0 0 0 0 0 0 1 155 1872 2475 2641 2608 2155 1690 1452 1678 1994 1439 939 905 1092 1069 938 734 542 369
53 16 0 6 73 77 35 28 1 36 20 0 0 0 0 0 6 94 0 0 0 0 0 0 0 0 2003 2106 1995 2021 1919 1540 1327 1025 735 805 654 439 231 71 68 55 73 32
12 11 1 24 86 93 0 0 0 0 19 23 0 0 0 0 294 526 205 0 0 0 0 259 323 1982 1869 1790 1663 1588 1148 686 426 259 199 80 7 0 0 0 0 0 0 0
7 23 11 0 7 17 25 26 0 0 38 2 0 0 0 0 613 799 760 135 4 914 1539 1500 1523 1451 1345 1283 1074 924 493 172 31 0 0 0 0 0 0 0 0 0 0 0
4 1 0 0 7 0 2 102 7 13 14 37 1 0 79 602 660 882 928 1038 1186 1248 1100 977 915 836 730 725 279 20 0 0 0 0 0 0 0 0 0 0 0 0 0 0
3 13 2 6 13 20 56 139 45 0 0 1 4 183 175 577 639 825 837 894 817 833 801 713 675 714 285 0 0 0 0 0 0 0 0 0 0 0 0 0 0 0 0 0
2 11 5 0 1 5 7 148 4 0 5 42 11 137 110 366 507 669 705 631 596 701 568 223 56 0 0 0 0 0 0 0 0 0 0 0 0 0 0 0 0 0 0 0
2 9 3 2 1 0 0 74 43 0 0 0 0 10 31 103 307 518 443 270 158 33 0 0 0 0 0 0 0 0 0 0 0 0 0 0 0 0 0 0 0 0 0 0
4 3 6 4 0 0 12 171 36 25 60 31 76 115 16 2 266 207 37 19 2 0 0 0 0 0 0 0 0 0 0 0 0 0 0 0 0 0 0 0 0 0 0 0
0 6 11 1 0 1 91 38 23 105 61 3 2 11 9 4 0 0 0 0 0 0 0 0 0 0 0 0 0 0 0 0 0 0 0 0 0 0 0 0 0 0 0 0
3 1 13 1 27 2 74 1 84 64 39 6 29 12 7 8 3 0 0 0 0 0 0 0 0 0 0 0 0 0 0 0 0 0 0 0 0 0 0 0 0 0 0 0
2 2 2 71 23 24 58 119 49 118 173 65 42 4 5 8 0 3 0 0 0 0 0 0 0 0 0 0 0 0 0 0 0 0 0 0 0 0 0 0 0 0 0 0
4 1 6 0 31 1 0 122 11 6 5 2 1 2 0 0 1 3 0 0 0 0 0 0 0 0 0 0 0 0 0 0 0 0 0 0 0 0 0 0 0 0 0 0
5 3 3 2 16 14 0 17 15 13 1 6 0 1 0 0 0 0 0 0 0 0 0 0 0 0 0 0 0 0 0 0 0 0 0 0 0 0 0 0 0 0 0 0
5 3 5 3 0 2 38 139 65 0 6 1 0 0 0 0 0 0 0 0 0 0 0 0 0 0 0 0 0 0 0 0 0 0 0 0 0 0 0 0 0 0 0 0
4 19 13 13 2 10 0 0 0 0 0 0 0 0 0 0 0 0 0 0 0 0 0 0 0 0 0 0 0 0 0 0 0 0 0 0 0 0 0 0 0 0 0 0
6 4 9 1 0 7 4 2 1 0 0 0 0 0 0 0 0 0 0 0 0 0 0 0 0 0 0 0 0 0 0 0 0 0 0 0 0 0 0 0 0 0 0 0
10 5 3 2 0 5 5 2 2 4 2 0 0 0 0 0 0 0 0 0 0 0 0 0 0 0 0 0 0 0 1 0 0 0 0 0 0 0 0 0 0 0 0 0
9 10 6 7 2 3 9 6 3 3 3 1 0 0 0 0 0 0 0 0 0 0 0 0 0 0 0 0 0 0 0 0 0 0 0 0 0 0 0 0 0 0 0 0

GFSCGP_con_sbcape_144.txt.gz
CAPE
0 0 0 0 0 0 0 0 0 0 0 0 0 0 0 0 0 0 0 0 0 0 0 0 661 539 530 426 234 99 3 0 70 754 1205 1375 1306 1493 1803 1885 1452 1125 1433 1491
0 1 0 0 2 0 0 0 0 0 0 0 0 0 0 0 0 0 0 0 0 0 0 0 34 171 132 82 0 0 0 0 88 344 722 1164 1256 1166 1187 1630 1858 1747 1634 1504
0 0 29 46 1 1 0 1 0 0 0 0 0 0 0 0 0 0 0 0 0 0 0 0 0 150 4 0 0 0 0 0 6 0 154 807 787 936 972 1192 1280 1466 1643 1662
0 0 0 32 41 0 0 0 0 0 0 0 0 0 0 0 0 0 0 0 0 0 0 0 0 1042 505 8 0 0 12 93 62 8 67 420 549 738 812 553 842 749 1382 1474
1 3 1 11 19 36 0 0 0 0 0 0 0 0 0 0 0 0 0 0 0 0 0 0 0 1312 2584 1525 465 135 534 847 270 135 433 730 1175 707 586 790 848 682 650 908
32 5 1 6 29 47 1 6 0 0 0 0 0 0 0 0 0 0 0 0 0 0 0 0 0 1888 2194 2236 1884 1987 1852 1773 1469 1133 881 785 1156 724 963 761 651 409 463 641
16 1 0 2 14 53 27 2 0 0 0 0 0 0 0 0 0 0 0 0 0 0 0 0 1152 1894 1724 1065 530 1183 1840 1742 1299 1055 856 877 555 459 581 687 817 461 620 251
30 5 5 0 0 1 20 0 0 1 2 0 0 0 0 0 0 0 0 0 0 0 0 0 1790 1988 1290 295 274 1419 1917 1611 952 718 408 90 85 37 350 692 383 189 69 0
26 0 4 7 0 3 116 24 2 0 8 0 0 0 0 0 0 0 0 0 0 0 0 1 1444 1950 1019 1153 1632 1603 1364 963 479 521 64 1 0 0 2 15 0 0 0 0
9 3 0 1 71 9 126 51 42 0 26 15 0 0 0 0 47 210 0 0 0 0 0 10 2278 2110 2172 2066 1670 1184 597 251 23 0 0 0 0 0 0 0 0 0 0 0
3 22 3 22 21 66 162 57 11 0 3 3 0 0 20 9 191 343 21 0 0 0 1164 1847 2076 2094 1627 1204 612 349 45 0 0 0 0 0 0 0 0 0 0 0 0 0
4 0 1 0 3 2 86 26 0 0 0 0 0 0 66 125 638 570 414 745 1200 1381 1545 1544 1522 1297 668 250 4 0 0 0 0 0 0 0 0 0 0 0 0 0 0 0
6 10 0 1 1 5 16 33 10 0 11 0 9 11 277 833 917 737 977 1187 1166 1036 1046 905 605 185 0 0 0 0 0 0 0 0 0 0 0 0 0 0 0 0 0 0
33 5 1 0 4 5 0 47 29 0 0 42 27 106 282 804 945 678 812 876 904 917 381 83 1 0 0 0 0 0 0 0 0 0 0 0 0 0 0 0 0 0 0 0
3 8 2 0 0 1 0 0 56 0 12 29 24 59 126 190 829 760 673 340 63 0 0 0 0 0 0 0 0 0 0 0 0 0 0 0 0 0 0 0 0 0 0 0
4 1 19 3 0 0 1 0 111 17 14 2 0 0 97 25 368 343 64 0 0 0 0 0 0 0 0 0 0 0 0 0 0 0 0 0 0 0 0 0 0 0 0 0
1 7 10 4 0 0 0 9 98 127 0 2 0 0 11 56 171 5 0 0 0 0 0 0 0 0 0 0 0 0 0 0 0 0 0 0 0 0 0 0 0 0 0 0
0 2 9 7 4 17 40 90 211 226 216 12 0 0 0 54 2 1 0 0 0 0 0 0 0 0 0 0 0 0 0 0 0 0 0 0 0 0 0 0 0 0 0 0
1 4 6 1 1 20 79 111 122 47 95 36 0 3 1 2 0 0 0 0 0 0 0 0 0 0 0 0 0 0 0 0 0 0 0 0 0 0 0 0 0 0 0 0
8 2 6 3 3 107 62 141 85 6 24 16 0 5 1 0 0 1 0 0 0 0 0 0 0 0 0 0 0 0 0 0 0 0 0 0 0 0 0 0 0 0 0 0
6 8 5 0 2 12 1 20 22 0 1 9 25 4 2 0 1 0 0 0 0 0 0 0 0 0 0 0 0 0 0 0 0 0 0 0 0 0 0 0 0 0 0 0
3 5 6 3 0 13 15 26 21 1 1 0 1 2 2 2 0 0 0 0 0 0 0 0 0 0 0 0 0 0 0 0 0 0 0 0 0 0 0 0 0 0 0 0
6 18 9 4 6 9 0 0 0 0 0 1 0 1 0 0 0 0 0 0 0 0 0 0 0 0 0 0 0 0 0 0 0 0 0 0 0 0 0 0 0 0 0 0
2 4 8 2 11 10 2 0 0 0 0 0 0 0 0 0 0 0 0 0 0 0 0 0 0 0 0 0 0 0 0 0 0 0 0 0 0 0 0 0 0 0 0 0
4 6 7 6 13 5 10 0 0 0 0 0 1 0 0 0 0 0 0 0 0 0 0 0 0 0 0 0 0 0 0 0 0 0 0 0 0 0 0 0 0 0 0 0
6 4 2 5 13 3 14 7 0 0 1 0 0 0 0 0 0 0 0 0 0 0 0 0 0 0 0 0 0 0 0 0 0 0 0 0 0 0 0 0 0 0 0 0